Location: Bouillancy
(49.1149°N, 2.9308°E)
Time: 23:19:32
(UTC+00:00)

ISS - Pass Details

Date: 30 September 2020
Orbit: 417 x 420 km, 51.6° (Epoch: 25 October)

Event Time Altitude Azimuth Distance (km) Brightness Sun altitude
Rises 19:52:14 0° 290° (WNW) 2,371 1.5 -23.8°
Reaches altitude 10° 19:54:23 10° 284° (WNW) 1,505 0.1 -24.1°
Enters shadow 19:56:31 33° 262° (W) 737 -2.1 -24.4°
